Simultaneous Nadir Overpasses (SNOs) Predictions

Prediction of SNOs between FY3D and LANDSAT-8 Satellite Orbit:

Table of predicted SNOs for the next 14.0 days since TLE Epoch: 4/13/2024
Index Date (FY3D) Time (FY3D) Lat,Lon (FY3D) SZA (FY3D ) Date (LANDSAT-8) Time (LANDSAT-8) Lat,Lon (LANDSAT-8) SZA (LANDSAT-8 ) Distance(km) Time Diff (sec)
1 04/13/2024 13:43:23 -74.26, 157.22 115.17 04/13/2024 13:44:35 -74.22, 157.24 115.20 3.78 72
2 04/13/2024 14:34:08 74.16, -35.22 64.73 04/13/2024 14:34:02 74.14, -35.30 64.71 2.92 6
3 04/13/2024 15:24:45 -73.82, 132.95 115.61 04/13/2024 15:23:34 -73.92, 131.82 115.54 36.24 71
4 04/16/2024 05:10:19 74.64, 104.53 64.27 04/16/2024 05:11:28 74.50, 106.15 64.16 50.46 69
5 04/16/2024 06:00:54 -74.21, -86.99 116.17 04/16/2024 06:01:02 -74.17, -86.99 116.20 3.80 8
6 04/16/2024 06:51:39 74.12, 80.56 63.74 04/16/2024 06:50:28 74.14, 80.58 63.76 3.07 71
7 04/18/2024 21:27:43 74.22,-138.67 62.93 04/18/2024 21:28:00 74.22,-138.64 62.93 0.87 17
8 04/18/2024 22:18:26 -74.17, 28.78 117.14 04/18/2024 22:17:29 -74.15, 28.84 117.16 2.60 57
9 04/21/2024 12:54:29 -74.23, 169.67 117.97 04/21/2024 12:55:00 -74.26, 169.69 117.94 3.07 31
10 04/21/2024 13:45:14 74.14, -22.81 61.95 04/21/2024 13:44:27 74.17, -22.88 61.96 3.22 47
11 04/24/2024 04:21:18 74.27, 117.92 61.20 04/24/2024 04:21:58 74.24, 117.91 61.18 2.59 40
12 04/24/2024 05:12:01 -74.21, -74.60 118.87 04/24/2024 05:11:27 -74.18, -74.60 118.90 2.78 34
13 04/26/2024 19:48:03 -74.28, 66.24 119.64 04/26/2024 19:48:56 -74.29, 66.26 119.63 0.72 53
14 04/26/2024 20:38:48 74.21,-126.26 60.28 04/26/2024 20:38:23 74.19,-126.32 60.26 2.73 25



Historial Predications of SNOs between FY3D and LANDSAT-8
